Погода в Выступовичах

Украина / Житомирская область     51°33′49″N   29°04′40″E
темп.,
°C
ветер,
м/с
пор.,
м/с
влажн.,
%
обл.,
%
осадки,
мм/ч
давл.,
гПа
погр.,
м
11 мая, вт
вт1100:00+8вюв24730 0.0 102571
03:00+7вюв22770 0.0 102526
06:00+6в22790 0.0 102441
09:00+14всв34530 0.0 1024476
12:00+18св34330 0.0 10221129
15:00+20всв33360 0.0 10211247
18:00+20всв34430 0.0 10191022
21:00+14всв24791 0.0 101953
12 мая, ср
ср1200:00+12всв310950 0.0 1019226
03:00+11в4109730 0.0 1018444
06:00+8в410945 0.0 1019434
09:00+11вюв58593 0.0 10201082
12:00+14вюв585113 0.0 10181449
15:00+15вюв575034 0.0 10171625
18:00+14в355994 0.0 10161032
21:00+9всв2284100 0.2 101537
13 мая, чт
чт1300:00+7в2394100 0.0 101352
03:00+8вюв259285 0.0 1012133
06:00+8ююв139398 0.0 1011112
09:00+11юв3572100 0.0 1010651
12:00+13ююв3459100 0.1 10101229
15:00+15юв4856100 0.1 10091631
18:00+10ююв51185100 0.3 1010747
21:00+10юв51488100 1.0 1009621
14 мая, пт
пт1400:00+11юв51391100 0.1 1008775
03:00+11юв51293100 0.2 1007694
06:00+11юв4109691 0.1 1007468
09:00+15ююв467259 0.1 1007577
12:00+20ююв454997 0.0 10061459
15:00+21ю4646100 0.0 10061849
18:00+15ююз4985100 0.8 1006536
21:00+12ю259583 1.0 1006200
15 мая, сб
сб1500:00+12ююз3897100 0.5 1006379
03:00+12юз399596 1.8 1007312
06:00+9юз39955 0.0 1008240
09:00+14юз47754 0.0 1009648
12:00+18юз575372 0.1 10101736
15:00+18з465657 0.4 10101480
18:00+18зюз335463 0.0 10101265
21:00+12зюз22815 0.1 101112